Location: Baia Mare
(47.6567°N, 23.5850°E)
Time: 13:13:30
(UTC+03:00)

ISS - Pass Details

Date: 26 May 2018
Orbit: 402 x 407 km, 51.6° (Epoch: 26 May)

Event Time Altitude Azimuth Distance (km) Brightness Sun altitude
Rises 23:45:29 0° 285° (WNW) 2,320 0.6 -17.7°
Reaches altitude 10° 23:47:39 10° 293° (WNW) 1,460 -0.4 -17.9°
Maximum altitude 23:50:45 40° 4° (N) 613 -2.5 -18.1°
Enters shadow 23:53:49 10° 76° (ENE) 1,435 -1.1 -18.3°
